Location: Zagreb
(45.8000°N, 16.0000°E)
Time: 22:34:16
(UTC+01:00)

Tiros 1 despin weight - Pass Details

Date: 30 January 2020
Orbit: 594 x 642 km, 48.2° (Epoch: 24 February)

Event Time Altitude Azimuth Distance (km) Brightness Sun altitude
Rises 12:01:44 0° 274° (W) 2,864 ? 26.4°
Reaches altitude 10° 12:04:03 10° 278° (W) 1,967 ? 26.5°
Maximum altitude 12:08:32 64° 360° (N) 690 ? 26.5°
Drops below altitude 10° 12:13:06 10° 82° (E) 1,998 ? 26.5°
Sets 12:15:28 0° 86° (E) 2,913 ? 26.5°
